• In Hungary
  • List of Countries
  • For 7 days
  • Water Temperature
  • Satellite Maps
  • Weather Map
  • News
  • Weather Widgets
  • user-avatar
    Login

    Hourly Weather Yasenskoe

    Today, 23 April, Monday

    Time Temperature Precipitation Wind Pressure Humidity
    00:00 -2°C° 0 mm 2 mps 739 mmHg 80%
    01:00 -3°C° 0 mm 2 mps 739 mmHg 82%
    02:00 -1°C° 0 mm 1 mps 739 mmHg 82%
    03:00 -1°C° 0 mm 1 mps 740 mmHg 81%
    04:00 -1°C° 0 mm 1 mps 740 mmHg 80%
    05:00 -1°C° 0 mm 1 mps 740 mmHg 79%
    06:00 -1°C° 0 mm 2 mps 740 mmHg 68%
    07:00 +1°C° 0 mm 2 mps 741 mmHg 58%
    08:00 +3°C° 0 mm 2 mps 741 mmHg 48%
    09:00 +4°C° 0 mm 2 mps 741 mmHg 44%
    10:00 +5°C° 0 mm 2 mps 741 mmHg 40%
    11:00 +6°C° 0 mm 2 mps 741 mmHg 36%
    12:00 +7°C° 0 mm 2 mps 741 mmHg 35%
    13:00 +7°C° 0 mm 2 mps 740 mmHg 34%
    14:00 +8°C° 0 mm 2 mps 740 mmHg 33%
    15:00 +8°C° 0 mm 2 mps 740 mmHg 35%
    16:00 +8°C° 0 mm 2 mps 740 mmHg 37%
    17:00 +7°C° 0 mm 2 mps 740 mmHg 39%
    18:00 +6°C° 0 mm 1 mps 740 mmHg 46%
    19:00 +4°C° 0 mm 1 mps 740 mmHg 53%
    20:00 +3°C° 0 mm 1 mps 740 mmHg 60%
    21:00 +2°C° 0 mm 1 mps 740 mmHg 61%
    22:00 +2°C° 0 mm 1 mps 739 mmHg 63%
    23:00 +1°C° 0 mm 1 mps 739 mmHg 64%

    Tomorrow, 24 April, Tuesday

    Time Temperature Precipitation Wind Pressure Humidity
    00:00 +1°C° 0 mm 1 mps 739 mmHg 65%
    01:00 +1°C° 0 mm 1 mps 739 mmHg 66%
    02:00 +1°C° 0 mm 1 mps 739 mmHg 67%
    03:00 +1°C° 0 mm 1 mps 739 mmHg 67%
    04:00 -1°C° 0 mm 2 mps 738 mmHg 66%
    05:00 -1°C° 0 mm 2 mps 738 mmHg 66%
    06:00 +2°C° 0 mm 2 mps 738 mmHg 61%
    07:00 +4°C° 0 mm 2 mps 738 mmHg 57%
    08:00 +6°C° 0 mm 2 mps 737 mmHg 52%
    09:00 +7°C° 0 mm 3 mps 737 mmHg 53%
    10:00 +8°C° 0 mm 3 mps 736 mmHg 53%
    11:00 +9°C° 0 mm 3 mps 736 mmHg 54%
    12:00 +10°C° 0.1 mm 3 mps 736 mmHg 57%
    13:00 +10°C° 0.1 mm 3 mps 735 mmHg 59%
    14:00 +10°C° 0.1 mm 4 mps 735 mmHg 62%
    15:00 +9°C° 0.4 mm 3 mps 734 mmHg 69%
    16:00 +8°C° 0.4 mm 3 mps 734 mmHg 77%
    17:00 +7°C° 0.4 mm 2 mps 734 mmHg 84%
    18:00 +7°C° 0.2 mm 2 mps 733 mmHg 87%
    19:00 +7°C° 0.2 mm 2 mps 733 mmHg 91%
    20:00 +6°C° 0.2 mm 2 mps 733 mmHg 94%
    21:00 +6°C° 0 mm 2 mps 733 mmHg 95%
    22:00 +5°C° 0 mm 2 mps 733 mmHg 96%
    23:00 +6°C° 0 mm 1 mps 732 mmHg 97%

    Day after tomorrow, 25 April, Wednesday

    Time Temperature Precipitation Wind Pressure Humidity
    00:00 +6°C° 0 mm 1 mps 732 mmHg 97%
    01:00 +6°C° 0 mm 1 mps 732 mmHg 97%
    02:00 +6°C° 0 mm 1 mps 732 mmHg 97%
    03:00 +5°C° 0 mm 2 mps 732 mmHg 97%
    04:00 +5°C° 0 mm 2 mps 732 mmHg 97%
    05:00 +5°C° 0 mm 2 mps 732 mmHg 97%
    06:00 +4°C° 0.3 mm 3 mps 732 mmHg 94%
    07:00 +5°C° 0.3 mm 3 mps 731 mmHg 92%
    08:00 +7°C° 0.3 mm 3 mps 731 mmHg 89%
    09:00 +6°C° 0.3 mm 4 mps 731 mmHg 86%
    10:00 +7°C° 0.3 mm 4 mps 731 mmHg 83%
    11:00 +8°C° 0.3 mm 4 mps 731 mmHg 79%
    12:00 +8°C° 0.3 mm 4 mps 731 mmHg 75%
    13:00 +9°C° 0.3 mm 5 mps 731 mmHg 71%
    14:00 +9°C° 0.3 mm 5 mps 731 mmHg 67%
    15:00 +10°C° 0.1 mm 4 mps 731 mmHg 66%
    16:00 +10°C° 0.1 mm 4 mps 731 mmHg 66%
    17:00 +10°C° 0.1 mm 4 mps 731 mmHg 66%
    18:00 +9°C° 0 mm 3 mps 731 mmHg 72%
    19:00 +7°C° 0 mm 3 mps 732 mmHg 78%
    20:00 +6°C° 0 mm 2 mps 732 mmHg 85%
    21:00 +6°C° 0 mm 2 mps 732 mmHg 87%
    22:00 +5°C° 0 mm 2 mps 732 mmHg 89%
    23:00 +6°C° 0 mm 1 mps 731 mmHg 92%

    26 April, Thursday

    Time Temperature Precipitation Wind Pressure Humidity
    00:00 +6°C° 0.1 mm 1 mps 731 mmHg 92%
    01:00 +6°C° 0.1 mm 1 mps 731 mmHg 92%
    02:00 +6°C° 0.1 mm 1 mps 731 mmHg 93%
    03:00 +6°C° 0.3 mm 1 mps 730 mmHg 94%
    04:00 +6°C° 0.3 mm 1 mps 730 mmHg 95%
    05:00 +6°C° 0.3 mm 1 mps 730 mmHg 96%
    06:00 +7°C° 0.2 mm 1 mps 730 mmHg 93%
    07:00 +7°C° 0.2 mm 1 mps 730 mmHg 91%
    08:00 +8°C° 0.2 mm 1 mps 730 mmHg 89%
    09:00 +8°C° 0.3 mm 2 mps 730 mmHg 84%
    10:00 +8°C° 0.3 mm 3 mps 730 mmHg 80%
    11:00 +9°C° 0.3 mm 3 mps 730 mmHg 76%
    12:00 +10°C° 0.3 mm 4 mps 731 mmHg 72%
    13:00 +10°C° 0.3 mm 4 mps 731 mmHg 68%
    14:00 +11°C° 0.3 mm 4 mps 731 mmHg 65%
    15:00 +11°C° 0.1 mm 4 mps 732 mmHg 63%
    16:00 +11°C° 0.1 mm 4 mps 732 mmHg 61%
    17:00 +11°C° 0.1 mm 4 mps 732 mmHg 60%
    18:00 +9°C° 0.1 mm 3 mps 733 mmHg 67%
    19:00 +8°C° 0.1 mm 2 mps 733 mmHg 74%
    20:00 +6°C° 0.1 mm 2 mps 734 mmHg 81%
    21:00 +6°C° 0 mm 2 mps 734 mmHg 84%
    22:00 +5°C° 0 mm 2 mps 734 mmHg 86%
    23:00 +5°C° 0 mm 2 mps 734 mmHg 88%

    27 April, Friday

    Time Temperature Precipitation Wind Pressure Humidity
    00:00 +5°C° 0 mm 2 mps 735 mmHg 88%
    01:00 +5°C° 0 mm 2 mps 735 mmHg 88%
    02:00 +4°C° 0 mm 3 mps 735 mmHg 89%
    03:00 +4°C° 0 mm 2 mps 735 mmHg 91%
    04:00 +4°C° 0 mm 2 mps 735 mmHg 93%
    05:00 +4°C° 0 mm 2 mps 736 mmHg 95%
    06:00 +4°C° 0 mm 3 mps 736 mmHg 87%
    07:00 +7°C° 0 mm 3 mps 736 mmHg 79%
    08:00 +8°C° 0 mm 3 mps 736 mmHg 71%
    09:00 +10°C° 0.1 mm 4 mps 736 mmHg 65%
    10:00 +11°C° 0.1 mm 4 mps 737 mmHg 59%
    11:00 +12°C° 0.1 mm 4 mps 737 mmHg 52%
    12:00 +12°C° 0.3 mm 4 mps 737 mmHg 53%
    13:00 +12°C° 0.3 mm 3 mps 736 mmHg 53%
    14:00 +12°C° 0.3 mm 3 mps 736 mmHg 53%
    15:00 +12°C° 0.3 mm 3 mps 736 mmHg 56%
    16:00 +11°C° 0.3 mm 3 mps 736 mmHg 59%
    17:00 +12°C° 0.3 mm 2 mps 736 mmHg 62%
    18:00 +9°C° 0.3 mm 2 mps 736 mmHg 69%
    19:00 +8°C° 0.3 mm 2 mps 737 mmHg 76%
    20:00 +7°C° 0.3 mm 2 mps 737 mmHg 83%
    21:00 +6°C° 0.2 mm 2 mps 737 mmHg 84%
    22:00 +6°C° 0.2 mm 2 mps 738 mmHg 86%
    23:00 +6°C° 0.2 mm 2 mps 738 mmHg 88%

    28 April, Saturday

    Time Temperature Precipitation Wind Pressure Humidity
    00:00 +5°C° 0 mm 2 mps 738 mmHg 90%
    01:00 +4°C° 0 mm 3 mps 739 mmHg 92%
    02:00 +3°C° 0 mm 3 mps 739 mmHg 94%
    03:00 +3°C° 0 mm 3 mps 739 mmHg 94%
    04:00 +3°C° 0 mm 3 mps 739 mmHg 95%
    05:00 +3°C° 0 mm 3 mps 740 mmHg 95%
    06:00 +4°C° 0 mm 3 mps 740 mmHg 90%
    07:00 +5°C° 0 mm 3 mps 741 mmHg 85%
    08:00 +6°C° 0 mm 4 mps 741 mmHg 80%
    09:00 +7°C° 0 mm 4 mps 742 mmHg 73%
    10:00 +8°C° 0 mm 4 mps 742 mmHg 66%
    11:00 +10°C° 0 mm 4 mps 742 mmHg 59%
    12:00 +11°C° 0.1 mm 4 mps 742 mmHg 55%
    13:00 +12°C° 0.1 mm 4 mps 742 mmHg 51%
    14:00 +12°C° 0.1 mm 4 mps 742 mmHg 47%
    15:00 +12°C° 0.2 mm 4 mps 742 mmHg 50%
    16:00 +12°C° 0.2 mm 4 mps 742 mmHg 53%
    17:00 +11°C° 0.2 mm 3 mps 743 mmHg 55%
    18:00 +10°C° 0.1 mm 3 mps 743 mmHg 63%
    19:00 +8°C° 0.1 mm 2 mps 743 mmHg 71%
    20:00 +8°C° 0.1 mm 1 mps 744 mmHg 78%
    21:00 +7°C° 0 mm 1 mps 744 mmHg 81%
    22:00 +7°C° 0 mm 1 mps 744 mmHg 83%
    23:00 +6°C° 0 mm 1 mps 744 mmHg 85%
    Show more